FDX5112 ROAH-RPLB

Flight info

Callsign FDX5112
Flight time 2h 14m
Altitude 36000
Route GANJU Y576 GANAS Y62 MJC B462 LAO M646 SANRO B591 TATIL W16 CIA TR24 KIBOK KIBOK1G
Aircraft B77L/H-SDE1E2E3FGHIJ2J3J4J5M1RWXY/LB1D1

Departure

Time 2026-05-05 05:21
Airport Naha International Airport (ROAH)

Arrival

Time 2026-05-05 07:35
Airport Subic Bay International Airport / Naval Air Station Cubi Point (RPLB)
Time Latitude Longitude Altitude Speed Heading
2026-05-05 05:01 26.21589 127.65074 26 ft 0 kts 158°
2026-05-05 05:11 26.21605 127.65067 47 ft 4 kts 158°
2026-05-05 05:12 26.21627 127.65057 31 ft 3 kts 158°
2026-05-05 05:12 26.21651 127.65052 31 ft 4 kts 208°
2026-05-05 05:12 26.21665 127.65073 31 ft 4 kts 250°
2026-05-05 05:12 26.21671 127.65088 29 ft 1 kts 248°
2026-05-05 05:13 26.21671 127.65090 30 ft 1 kts 248°
2026-05-05 05:14 26.21671 127.65089 29 ft 2 kts 248°
2026-05-05 05:15 26.21656 127.65047 30 ft 7 kts 249°
2026-05-05 05:15 26.21634 127.64985 29 ft 11 kts 248°
2026-05-05 05:15 26.21592 127.64908 31 ft 12 kts 228°
2026-05-05 05:15 26.21494 127.64804 28 ft 23 kts 223°
2026-05-05 05:16 26.21352 127.64739 28 ft 25 kts 180°
2026-05-05 05:16 26.21141 127.64747 25 ft 31 kts 178°
2026-05-05 05:16 26.20933 127.64730 24 ft 30 kts 180°
2026-05-05 05:16 26.20725 127.64740 24 ft 30 kts 177°
2026-05-05 05:17 26.20516 127.64750 24 ft 30 kts 178°
2026-05-05 05:17 26.20308 127.64760 23 ft 30 kts 177°
2026-05-05 05:17 26.20099 127.64770 22 ft 30 kts 178°
2026-05-05 05:17 26.19915 127.64778 23 ft 23 kts 178°
2026-05-05 05:18 26.19753 127.64786 23 ft 23 kts 177°
2026-05-05 05:18 26.19592 127.64794 23 ft 23 kts 177°
2026-05-05 05:18 26.19428 127.64801 23 ft 23 kts 178°
2026-05-05 05:18 26.19319 127.64806 23 ft 23 kts 177°
2026-05-05 05:19 26.19104 127.64816 22 ft 41 kts 177°
2026-05-05 05:19 26.18807 127.64830 23 ft 40 kts 177°
2026-05-05 05:19 26.18545 127.64843 21 ft 35 kts 178°
2026-05-05 05:19 26.18323 127.64853 23 ft 30 kts 179°
2026-05-05 05:20 26.18241 127.64748 20 ft 18 kts 271°
2026-05-05 05:20 26.18277 127.64651 20 ft 13 kts 342°
2026-05-05 05:20 26.18455 127.64641 21 ft 57 kts 358°
2026-05-05 05:20 26.19197 127.64607 26 ft 154 kts 357°
2026-05-05 05:21 26.20418 127.64540 747 ft 178 kts 359°
2026-05-05 05:21 26.21655 127.64479 2176 ft 182 kts
2026-05-05 05:21 26.23016 127.64426 2632 ft 209 kts
2026-05-05 05:21 26.24584 127.64369 2886 ft 242 kts 359°
2026-05-05 05:22 26.26279 127.63999 3353 ft 258 kts 333°
2026-05-05 05:22 26.27858 127.62973 4083 ft 267 kts 327°
2026-05-05 05:22 26.29471 127.61913 5011 ft 272 kts 328°
2026-05-05 05:22 26.31112 127.60854 5986 ft 274 kts 327°
2026-05-05 05:23 26.32776 127.59785 6926 ft 278 kts 327°
2026-05-05 05:23 26.34475 127.58700 7783 ft 283 kts 326°
2026-05-05 05:23 26.36195 127.57602 8643 ft 288 kts 326°
2026-05-05 05:23 26.37957 127.56479 9494 ft 293 kts 325°
2026-05-05 05:24 26.39682 127.55277 10321 ft 291 kts 313°
2026-05-05 05:24 26.40878 127.53498 10731 ft 298 kts 287°
2026-05-05 05:24 26.41233 127.51172 10935 ft 316 kts 262°
2026-05-05 05:24 26.40552 127.48779 11160 ft 335 kts 236°
2026-05-05 05:25 26.39067 127.46780 11973 ft 332 kts 229°
2026-05-05 05:25 26.37562 127.44898 13399 ft 317 kts 230°
2026-05-05 05:25 26.36150 127.43112 14736 ft 304 kts 230°
2026-05-05 05:25 26.34788 127.41378 15954 ft 292 kts 231°
2026-05-05 05:26 26.33425 127.39740 17077 ft 285 kts 228°
2026-05-05 05:26 26.32011 127.38186 17891 ft 287 kts 227°
2026-05-05 05:26 26.30565 127.36626 18535 ft 292 kts 227°
2026-05-05 05:26 26.29096 127.35040 19130 ft 295 kts 227°
2026-05-05 05:27 26.27620 127.33442 19817 ft 296 kts 227°
2026-05-05 05:27 26.26145 127.31839 20499 ft 297 kts 227°
2026-05-05 05:27 26.23155 127.28578 21571 ft 308 kts 227°
2026-05-05 05:28 26.21616 127.26898 22188 ft 310 kts 227°
2026-05-05 05:28 26.20076 127.25218 22909 ft 310 kts 227°
2026-05-05 05:28 26.18526 127.23527 23595 ft 312 kts 227°
2026-05-05 05:28 26.16971 127.21830 24219 ft 311 kts 227°
2026-05-05 05:29 26.15424 127.20141 24869 ft 313 kts 227°
2026-05-05 05:29 26.13862 127.18438 25536 ft 316 kts 228°
2026-05-05 05:29 26.12335 127.16664 26240 ft 317 kts 236°
2026-05-05 05:29 26.11120 127.14651 26899 ft 318 kts 239°
2026-05-05 05:30 26.09947 127.12547 27583 ft 321 kts 240°
2026-05-05 05:30 26.08744 127.10444 28201 ft 326 kts 236°
2026-05-05 05:30 26.07292 127.08406 28318 ft 345 kts 231°
2026-05-05 05:30 26.05580 127.06444 28377 ft 362 kts 228°
2026-05-05 05:31 26.03743 127.04447 28474 ft 377 kts 227°
2026-05-05 05:31 26.01828 127.02380 28574 ft 391 kts 227°
2026-05-05 05:31 25.99847 127.00244 28665 ft 404 kts 227°
2026-05-05 05:31 25.97870 126.98113 28777 ft 415 kts 227°
2026-05-05 05:32 25.95766 126.95842 28883 ft 426 kts 227°
2026-05-05 05:32 25.93617 126.93522 29032 ft 434 kts 227°
2026-05-05 05:32 25.91440 126.91171 29316 ft 438 kts 227°
2026-05-05 05:32 25.89244 126.88800 29738 ft 439 kts 227°
2026-05-05 05:33 25.87053 126.86437 30259 ft 437 kts 227°
2026-05-05 05:33 25.84877 126.84090 30772 ft 434 kts 227°
2026-05-05 05:33 25.82716 126.81758 31279 ft 432 kts 228°
2026-05-05 05:33 25.80569 126.79442 31755 ft 430 kts 228°
2026-05-05 05:34 25.78424 126.77127 32186 ft 429 kts 228°
2026-05-05 05:34 25.76312 126.74850 32594 ft 429 kts 229°
2026-05-05 05:34 25.74172 126.72543 33044 ft 428 kts 229°
2026-05-05 05:34 25.72041 126.70247 33476 ft 426 kts 229°
2026-05-05 05:35 25.69918 126.67962 33876 ft 426 kts 229°
2026-05-05 05:35 25.67791 126.65672 34209 ft 426 kts 229°
2026-05-05 05:35 25.65664 126.63384 34510 ft 426 kts 229°
2026-05-05 05:35 25.63538 126.61098 34795 ft 426 kts 229°
2026-05-05 05:36 25.61410 126.58811 35094 ft 426 kts 229°
2026-05-05 05:36 25.59281 126.56525 35384 ft 426 kts 229°
2026-05-05 05:36 25.57152 126.54240 35686 ft 425 kts 229°
2026-05-05 05:36 25.55052 126.51988 35951 ft 425 kts 229°
2026-05-05 05:37 25.50768 126.47394 36071 ft 429 kts 229°
2026-05-05 05:37 25.46491 126.42817 36066 ft 426 kts 229°
2026-05-05 05:38 25.42233 126.38264 36072 ft 425 kts 229°
2026-05-05 05:38 25.37985 126.33725 36074 ft 424 kts 229°
2026-05-05 05:39 25.33738 126.29190 36074 ft 424 kts 229°
2026-05-05 05:39 25.29521 126.24693 36070 ft 425 kts 229°
2026-05-05 05:40 25.25248 126.20140 36075 ft 426 kts 229°
2026-05-05 05:40 25.20971 126.15589 36068 ft 427 kts 229°
2026-05-05 05:41 25.16685 126.11032 36070 ft 428 kts 229°
2026-05-05 05:41 25.12415 126.06498 36069 ft 429 kts 229°
2026-05-05 05:42 25.08103 126.01923 36050 ft 430 kts 229°
2026-05-05 05:42 25.03837 125.97403 36059 ft 431 kts 229°
2026-05-05 05:43 24.99511 125.92824 36054 ft 432 kts 229°
2026-05-05 05:43 24.95172 125.88234 36051 ft 432 kts 229°
2026-05-05 05:44 24.90828 125.83645 36033 ft 433 kts 229°
2026-05-05 05:44 24.86474 125.79049 36045 ft 433 kts 229°
2026-05-05 05:45 24.82148 125.74489 36051 ft 434 kts 229°
2026-05-05 05:45 24.77776 125.69883 36046 ft 436 kts 229°
2026-05-05 05:46 24.73369 125.65245 36045 ft 439 kts 229°
2026-05-05 05:46 24.68959 125.60609 36042 ft 437 kts 228°
2026-05-05 05:47 24.64566 125.56000 36041 ft 434 kts 228°
2026-05-05 05:47 24.60225 125.51448 36032 ft 433 kts 228°
2026-05-05 05:48 24.55872 125.46886 36031 ft 432 kts 229°
2026-05-05 05:48 24.51527 125.42336 36002 ft 431 kts 228°
2026-05-05 05:49 24.47167 125.37775 36028 ft 432 kts 228°
2026-05-05 05:49 24.42798 125.33210 36026 ft 435 kts 228°
2026-05-05 05:50 24.38402 125.28621 36025 ft 437 kts 228°
2026-05-05 05:50 24.33988 125.24019 36039 ft 439 kts 228°
2026-05-05 05:51 24.29553 125.19399 36017 ft 440 kts 228°
2026-05-05 05:51 24.25128 125.14797 36016 ft 440 kts 228°
2026-05-05 05:52 24.20682 125.10175 36016 ft 440 kts 228°
2026-05-05 05:52 24.16271 125.05596 36012 ft 439 kts 228°
2026-05-05 05:53 24.11841 125.01000 35982 ft 438 kts 228°
2026-05-05 05:53 24.07479 124.96479 36008 ft 438 kts 227°
2026-05-05 05:54 24.03054 124.91898 36007 ft 437 kts 227°
2026-05-05 05:54 23.98641 124.87334 36003 ft 437 kts 227°
2026-05-05 05:55 23.94213 124.82758 36009 ft 437 kts 227°
2026-05-05 05:55 23.89789 124.78191 36001 ft 437 kts 227°
2026-05-05 05:56 23.85386 124.73651 36003 ft 437 kts 227°
2026-05-05 05:56 23.80958 124.69089 36002 ft 437 kts 228°
2026-05-05 05:57 23.76522 124.64523 35998 ft 438 kts 227°
2026-05-05 05:57 23.72086 124.59962 36004 ft 438 kts 227°
2026-05-05 05:58 23.67668 124.55424 35989 ft 438 kts 227°
2026-05-05 05:58 23.63225 124.50864 36007 ft 439 kts 227°
2026-05-05 05:59 23.58772 124.46297 35998 ft 440 kts 227°
2026-05-05 05:59 23.54307 124.41725 35996 ft 440 kts 227°
2026-05-05 06:00 23.49845 124.37159 35997 ft 440 kts 227°
2026-05-05 06:00 23.45376 124.32590 35994 ft 440 kts 227°
2026-05-05 06:01 23.40921 124.28039 35999 ft 442 kts 227°
2026-05-05 06:01 23.36429 124.23468 35997 ft 443 kts 226°
2026-05-05 06:02 23.31482 124.19373 35982 ft 449 kts 219°
2026-05-05 06:02 23.26284 124.15579 35966 ft 448 kts 219°
2026-05-05 06:03 23.21124 124.11791 35976 ft 447 kts 219°
2026-05-05 06:03 23.15985 124.07998 35984 ft 446 kts 219°
2026-05-05 06:04 23.10870 124.04221 35977 ft 446 kts 219°
2026-05-05 06:04 23.05730 124.00428 35978 ft 446 kts 219°
2026-05-05 06:05 23.01527 123.97332 35970 ft 446 kts 219°
2026-05-05 06:05 22.96362 123.93576 35979 ft 447 kts 218°
2026-05-05 06:06 22.90309 123.89243 35977 ft 448 kts 218°
2026-05-05 06:06 22.85977 123.86136 35976 ft 449 kts 218°
2026-05-05 06:07 22.80766 123.82395 35956 ft 449 kts 218°
2026-05-05 06:07 22.75543 123.78656 35970 ft 450 kts 218°
2026-05-05 06:08 22.70308 123.74917 35971 ft 451 kts 218°
2026-05-05 06:08 22.65064 123.71174 35970 ft 451 kts 218°
2026-05-05 06:09 22.59816 123.67431 35970 ft 452 kts 218°
2026-05-05 06:09 22.54566 123.63688 35955 ft 452 kts 218°
2026-05-05 06:10 22.49340 123.59967 35969 ft 452 kts 218°
2026-05-05 06:10 22.44085 123.56227 35965 ft 453 kts 218°
2026-05-05 06:11 22.38824 123.52487 35959 ft 453 kts 218°
2026-05-05 06:11 22.33546 123.48739 35952 ft 453 kts 218°
2026-05-05 06:12 22.28299 123.45016 35961 ft 453 kts 218°
2026-05-05 06:12 22.22990 123.41252 35962 ft 454 kts 218°
2026-05-05 06:13 22.17740 123.37534 35959 ft 454 kts 218°
2026-05-05 06:13 22.12452 123.33792 35941 ft 455 kts 218°
2026-05-05 06:14 22.07167 123.30056 35950 ft 455 kts 217°
2026-05-05 06:14 22.01859 123.26307 35958 ft 455 kts 217°
2026-05-05 06:15 21.96590 123.22588 35958 ft 457 kts 217°
2026-05-05 06:15 21.91231 123.18807 35958 ft 462 kts 217°
2026-05-05 06:16 21.85842 123.15012 35942 ft 461 kts 217°
2026-05-05 06:16 21.80499 123.11254 35953 ft 461 kts 217°
2026-05-05 06:17 21.75118 123.07471 35948 ft 460 kts 217°
2026-05-05 06:17 21.69757 123.03705 35948 ft 460 kts 217°
2026-05-05 06:18 21.64441 122.99973 35960 ft 460 kts 217°
2026-05-05 06:18 21.59133 122.96251 35950 ft 460 kts 217°
2026-05-05 06:19 21.53771 122.92495 35942 ft 460 kts 217°
2026-05-05 06:19 21.48408 122.88741 35948 ft 460 kts 217°
2026-05-05 06:20 21.43039 122.84985 35949 ft 460 kts 217°
2026-05-05 06:20 21.37700 122.81255 35947 ft 460 kts 217°
2026-05-05 06:21 21.32319 122.77498 35937 ft 461 kts 217°
2026-05-05 06:21 21.26936 122.73743 35940 ft 461 kts 217°
2026-05-05 06:22 21.21540 122.69983 35938 ft 461 kts 217°
2026-05-05 06:22 21.16193 122.66259 35919 ft 461 kts 217°
2026-05-05 06:23 21.10825 122.62525 35932 ft 460 kts 217°
2026-05-05 06:23 21.05452 122.58789 35946 ft 459 kts 217°
2026-05-05 06:24 21.00099 122.55071 35937 ft 458 kts 217°
2026-05-05 06:24 20.94825 122.51282 35941 ft 456 kts 218°
2026-05-05 06:25 20.89624 122.47447 35932 ft 456 kts 218°
2026-05-05 06:25 20.84401 122.43603 35930 ft 456 kts 218°
2026-05-05 06:26 20.79168 122.39772 35937 ft 456 kts 218°
2026-05-05 06:26 20.73922 122.35943 35938 ft 457 kts 218°
2026-05-05 06:27 20.66030 122.30192 35926 ft 458 kts 218°
2026-05-05 06:28 20.60794 122.26379 35931 ft 458 kts 218°
2026-05-05 06:28 20.55515 122.22538 35932 ft 460 kts 218°
2026-05-05 06:29 20.50162 122.18644 35937 ft 470 kts 218°
2026-05-05 06:29 20.44744 122.14707 35942 ft 477 kts 218°
2026-05-05 06:30 20.39222 122.10700 35929 ft 483 kts 217°
2026-05-05 06:30 20.33650 122.06662 35942 ft 485 kts 217°
2026-05-05 06:31 20.28049 122.02607 35927 ft 487 kts 217°
2026-05-05 06:31 20.22525 121.98611 35921 ft 486 kts 217°
2026-05-05 06:32 20.16967 121.94592 35908 ft 484 kts 217°
2026-05-05 06:32 20.11390 121.90563 35917 ft 483 kts 217°
2026-05-05 06:33 20.05820 121.86542 35923 ft 483 kts 217°
2026-05-05 06:33 20.00261 121.82533 35921 ft 483 kts 217°
2026-05-05 06:34 19.94700 121.78525 35929 ft 483 kts 217°
2026-05-05 06:34 19.89138 121.74520 35913 ft 483 kts 217°
2026-05-05 06:35 19.83601 121.70537 35921 ft 484 kts 217°
2026-05-05 06:35 19.78008 121.66517 35921 ft 485 kts 217°
2026-05-05 06:36 19.72409 121.62497 35912 ft 485 kts 217°
2026-05-05 06:36 19.66851 121.58509 35902 ft 486 kts 217°
2026-05-05 06:37 19.61248 121.54492 35909 ft 486 kts 217°
2026-05-05 06:37 19.55638 121.50474 35916 ft 486 kts 217°
2026-05-05 06:38 19.50027 121.46459 35906 ft 487 kts 217°
2026-05-05 06:38 19.44404 121.42438 35905 ft 487 kts 217°
2026-05-05 06:39 19.38780 121.38420 35893 ft 487 kts 217°
2026-05-05 06:39 19.33163 121.34410 35901 ft 487 kts 217°
2026-05-05 06:40 19.27565 121.30418 35894 ft 487 kts 217°
2026-05-05 06:40 19.21929 121.26402 35892 ft 487 kts 217°
2026-05-05 06:41 19.16295 121.22390 35893 ft 488 kts 217°
2026-05-05 06:41 19.10662 121.18382 35887 ft 488 kts 217°
2026-05-05 06:42 19.05061 121.14401 35881 ft 488 kts 217°
2026-05-05 06:42 18.99420 121.10395 35884 ft 488 kts 217°
2026-05-05 06:43 18.93788 121.06397 35882 ft 487 kts 217°
2026-05-05 06:43 18.88146 121.02396 35874 ft 487 kts 217°
2026-05-05 06:44 18.82637 120.98493 35871 ft 488 kts 217°
2026-05-05 06:44 18.76997 120.94500 35872 ft 488 kts 217°
2026-05-05 06:45 18.71341 120.90498 35890 ft 489 kts 217°
2026-05-05 06:45 18.65681 120.86497 35885 ft 489 kts 217°
2026-05-05 06:46 18.60061 120.82527 35887 ft 490 kts 217°
2026-05-05 06:46 18.54384 120.78528 35881 ft 490 kts 217°
2026-05-05 06:47 18.48699 120.74531 35887 ft 491 kts 217°
2026-05-05 06:47 18.43015 120.70534 35883 ft 491 kts 217°
2026-05-05 06:48 18.37321 120.66533 35869 ft 491 kts 217°
2026-05-05 06:48 18.31670 120.62564 35881 ft 492 kts 217°
2026-05-05 06:49 18.25963 120.58556 35887 ft 492 kts 217°
2026-05-05 06:49 18.20124 120.54769 35879 ft 496 kts 208°
2026-05-05 06:50 18.13566 120.52395 35890 ft 502 kts 196°
2026-05-05 06:50 18.06576 120.51468 35886 ft 507 kts 189°
2026-05-05 06:51 17.99567 120.50712 35881 ft 507 kts 190°
2026-05-05 06:51 17.92598 120.49886 35877 ft 507 kts 190°
2026-05-05 06:52 17.85582 120.49057 35872 ft 507 kts 190°
2026-05-05 06:52 17.78567 120.48236 35861 ft 507 kts 189°
2026-05-05 06:53 17.71551 120.47416 35872 ft 507 kts 189°
2026-05-05 06:53 17.64544 120.46595 35870 ft 507 kts 189°
2026-05-05 06:54 17.57525 120.45766 35868 ft 507 kts 189°
2026-05-05 06:54 17.51686 120.45077 35867 ft 507 kts 189°
2026-05-05 06:55 17.43535 120.44117 35859 ft 507 kts 189°
2026-05-05 06:55 17.37656 120.43424 35869 ft 507 kts 189°
2026-05-05 06:56 17.30677 120.42603 35881 ft 507 kts 189°
2026-05-05 06:56 17.23659 120.41778 35876 ft 507 kts 189°
2026-05-05 06:57 17.16645 120.40952 35878 ft 507 kts 189°
2026-05-05 06:57 17.09624 120.40125 35887 ft 507 kts 189°
2026-05-05 06:58 17.02662 120.39306 35868 ft 508 kts 189°
2026-05-05 06:58 16.95633 120.38480 35876 ft 508 kts 189°
2026-05-05 06:59 16.88608 120.37647 35871 ft 507 kts 191°
2026-05-05 06:59 16.81858 120.35703 35884 ft 502 kts 204°
2026-05-05 07:00 16.75429 120.32839 35876 ft 502 kts 206°
2026-05-05 07:00 16.69087 120.29853 35876 ft 502 kts 207°
2026-05-05 07:00 16.65905 120.28346 35841 ft 490 kts 207°
2026-05-05 07:01 16.62836 120.26889 35619 ft 482 kts 207°
2026-05-05 07:01 16.59826 120.25453 35007 ft 480 kts 207°
2026-05-05 07:01 16.56783 120.23997 34353 ft 479 kts 207°
2026-05-05 07:01 16.53758 120.22547 33840 ft 475 kts 207°
2026-05-05 07:02 16.50775 120.21116 33287 ft 470 kts 207°
2026-05-05 07:02 16.47824 120.19697 32828 ft 465 kts 207°
2026-05-05 07:02 16.44903 120.18292 32307 ft 461 kts 206°
2026-05-05 07:02 16.41871 120.17131 31474 ft 467 kts 197°
2026-05-05 07:03 16.38710 120.16376 30910 ft 465 kts 192°
2026-05-05 07:03 16.35508 120.15934 30357 ft 464 kts 187°
2026-05-05 07:03 16.32303 120.15665 29820 ft 460 kts 186°
2026-05-05 07:03 16.29119 120.15407 29222 ft 457 kts 186°
2026-05-05 07:04 16.25970 120.15150 28672 ft 453 kts 186°
2026-05-05 07:04 16.22835 120.14888 28146 ft 448 kts 186°
2026-05-05 07:04 16.19772 120.14627 27642 ft 444 kts 186°
2026-05-05 07:04 16.16699 120.14361 27136 ft 440 kts 186°
2026-05-05 07:05 16.13641 120.14092 26156 ft 446 kts 186°
2026-05-05 07:05 16.10499 120.13813 24852 ft 461 kts 186°
2026-05-05 07:05 16.07250 120.13524 23759 ft 472 kts 186°
2026-05-05 07:05 16.03965 120.13234 22784 ft 474 kts 186°
2026-05-05 07:06 16.00678 120.12945 21924 ft 473 kts 186°
2026-05-05 07:06 15.97428 120.12661 21279 ft 466 kts 185°
2026-05-05 07:06 15.94217 120.12380 20720 ft 459 kts 186°
2026-05-05 07:06 15.91058 120.12103 20188 ft 453 kts 185°
2026-05-05 07:07 15.87945 120.11829 19993 ft 454 kts 185°
2026-05-05 07:07 15.84792 120.11553 19863 ft 452 kts 185°
2026-05-05 07:07 15.81659 120.11277 19872 ft 452 kts 185°
2026-05-05 07:07 15.78531 120.11003 19864 ft 448 kts 186°
2026-05-05 07:08 15.75458 120.10733 19777 ft 439 kts 185°
2026-05-05 07:08 15.72445 120.10468 19639 ft 431 kts 186°
2026-05-05 07:08 15.69478 120.10209 19489 ft 425 kts 186°
2026-05-05 07:08 15.66532 120.09950 19123 ft 422 kts 185°
2026-05-05 07:09 15.63614 120.09694 18612 ft 420 kts 185°
2026-05-05 07:09 15.60711 120.09440 18070 ft 418 kts 185°
2026-05-05 07:09 15.57824 120.09187 17464 ft 415 kts 185°
2026-05-05 07:09 15.54952 120.08935 16885 ft 412 kts 185°
2026-05-05 07:10 15.52107 120.08686 16351 ft 408 kts 185°
2026-05-05 07:10 15.49327 120.08442 15814 ft 404 kts 185°
2026-05-05 07:10 15.46536 120.08198 15281 ft 401 kts 185°
2026-05-05 07:10 15.43756 120.07954 14747 ft 398 kts 184°
2026-05-05 07:11 15.41000 120.07712 14209 ft 397 kts 184°
2026-05-05 07:11 15.38255 120.07472 13671 ft 395 kts 184°
2026-05-05 07:11 15.35523 120.07234 13079 ft 392 kts 184°
2026-05-05 07:11 15.32816 120.06998 12532 ft 389 kts 184°
2026-05-05 07:12 15.30136 120.06764 12051 ft 385 kts 184°
2026-05-05 07:12 15.27491 120.06530 11587 ft 380 kts 183°
2026-05-05 07:12 15.24869 120.06301 11120 ft 375 kts 183°
2026-05-05 07:12 15.22317 120.06080 10963 ft 361 kts 183°
2026-05-05 07:13 15.19853 120.05863 10800 ft 349 kts 182°
2026-05-05 07:13 15.17476 120.05653 10664 ft 337 kts 182°
2026-05-05 07:13 15.15178 120.05454 10512 ft 325 kts 183°
2026-05-05 07:13 15.12959 120.05261 10375 ft 314 kts 183°
2026-05-05 07:14 15.10821 120.05074 10216 ft 303 kts 182°
2026-05-05 07:14 15.08758 120.04894 10106 ft 292 kts 182°
2026-05-05 07:14 15.06770 120.04719 9977 ft 281 kts 182°
2026-05-05 07:14 15.04867 120.04555 9712 ft 276 kts 182°
2026-05-05 07:15 15.02940 120.04388 9388 ft 272 kts 182°
2026-05-05 07:15 15.01088 120.04227 9087 ft 268 kts 182°
2026-05-05 07:15 14.99241 120.04067 8785 ft 266 kts 182°
2026-05-05 07:15 14.97380 120.03906 8489 ft 271 kts 182°
2026-05-05 07:16 14.95476 120.03742 8181 ft 277 kts 182°
2026-05-05 07:16 14.93547 120.03575 7878 ft 277 kts 182°
2026-05-05 07:16 14.91633 120.03407 7559 ft 274 kts 182°
2026-05-05 07:16 14.89746 120.03242 7241 ft 270 kts 181°
2026-05-05 07:17 14.87892 120.03080 6935 ft 266 kts 181°
2026-05-05 07:17 14.86066 120.02921 6649 ft 261 kts 181°
2026-05-05 07:17 14.84285 120.02766 6349 ft 260 kts 181°
2026-05-05 07:17 14.82465 120.02609 6066 ft 266 kts 181°
2026-05-05 07:18 14.80614 120.02449 5891 ft 266 kts 181°
2026-05-05 07:18 14.78787 120.02289 5735 ft 260 kts 181°
2026-05-05 07:18 14.77027 120.02157 5488 ft 247 kts 173°
2026-05-05 07:18 14.75460 120.02628 5213 ft 228 kts 143°
2026-05-05 07:19 14.74284 120.03651 4969 ft 218 kts 130°
2026-05-05 07:19 14.73269 120.04788 4771 ft 214 kts 129°
2026-05-05 07:19 14.72261 120.05940 4481 ft 217 kts 129°
2026-05-05 07:19 14.71264 120.07118 4189 ft 215 kts 122°
2026-05-05 07:20 14.70790 120.08522 3932 ft 211 kts 93°
2026-05-05 07:20 14.70982 120.10030 3662 ft 210 kts 71°
2026-05-05 07:20 14.71612 120.11394 3366 ft 210 kts 64°
2026-05-05 07:20 14.72303 120.12704 3050 ft 211 kts 63°
2026-05-05 07:21 14.73001 120.14030 2754 ft 213 kts 64°
2026-05-05 07:21 14.73706 120.15367 2437 ft 211 kts 64°
2026-05-05 07:21 14.74404 120.16689 2137 ft 210 kts 64°
2026-05-05 07:21 14.75109 120.18023 1834 ft 215 kts 64°
2026-05-05 07:22 14.75829 120.19387 1590 ft 213 kts 63°
2026-05-05 07:22 14.76690 120.20569 1479 ft 204 kts 47°
2026-05-05 07:22 14.77775 120.21559 1485 ft 213 kts 42°
2026-05-05 07:22 14.78944 120.22498 1491 ft 211 kts 40°
2026-05-05 07:23 14.80109 120.23422 1480 ft 209 kts 41°
2026-05-05 07:23 14.81208 120.24287 1474 ft 185 kts 41°
2026-05-05 07:23 14.82167 120.25033 1437 ft 161 kts 41°
2026-05-05 07:23 14.83005 120.25709 1483 ft 146 kts 47°
2026-05-05 07:24 14.83566 120.26573 1403 ft 146 kts 70°
2026-05-05 07:24 14.83790 120.27616 1204 ft 155 kts 84°
2026-05-05 07:24 14.83688 120.28707 1037 ft 149 kts 106°
2026-05-05 07:24 14.83161 120.29538 908 ft 141 kts 134°
2026-05-05 07:25 14.82262 120.30050 841 ft 159 kts 162°
2026-05-05 07:25 14.81136 120.29923 776 ft 174 kts 198°
2026-05-05 07:25 14.80206 120.29099 350 ft 179 kts 246°
2026-05-05 07:25 14.79787 120.27937 118 ft 165 kts 247°
2026-05-05 07:26 14.79231 120.26944 406 ft 160 kts 228°
2026-05-05 07:26 14.78409 120.26082 901 ft 179 kts 213°
2026-05-05 07:26 14.77338 120.25352 1948 ft 192 kts 213°
2026-05-05 07:26 14.76242 120.24517 2397 ft 192 kts 211°
2026-05-05 07:27 14.75182 120.23742 2403 ft 193 kts 213°
2026-05-05 07:27 14.74082 120.22920 2160 ft 194 kts 213°
2026-05-05 07:27 14.73008 120.22102 1917 ft 189 kts 214°
2026-05-05 07:27 14.71927 120.21277 1689 ft 206 kts 213°
2026-05-05 07:28 14.70703 120.20360 1649 ft 227 kts 211°
2026-05-05 07:28 14.69432 120.19407 1590 ft 220 kts 213°
2026-05-05 07:28 14.68365 120.18324 1478 ft 219 kts 238°
2026-05-05 07:28 14.67740 120.16863 1507 ft 227 kts 245°
2026-05-05 07:29 14.67252 120.15305 1472 ft 233 kts 264°
2026-05-05 07:29 14.67512 120.13640 1446 ft 244 kts 296°
2026-05-05 07:29 14.68581 120.12300 1464 ft 242 kts 327°
2026-05-05 07:29 14.70102 120.11687 1467 ft 234 kts 358°
2026-05-05 07:30 14.71679 120.11954 1463 ft 234 kts 28°
2026-05-05 07:30 14.73694 120.14388 1441 ft 225 kts 66°
2026-05-05 07:30 14.74294 120.15872 1472 ft 224 kts 71°
2026-05-05 07:31 14.74841 120.17366 1481 ft 226 kts 70°
2026-05-05 07:31 14.75400 120.18885 1492 ft 223 kts 67°
2026-05-05 07:31 14.76349 120.20114 1484 ft 219 kts 43°
2026-05-05 07:31 14.77557 120.21116 1476 ft 225 kts 41°
2026-05-05 07:32 14.78801 120.22110 1492 ft 226 kts 40°
2026-05-05 07:32 14.80004 120.23064 1452 ft 207 kts 41°
2026-05-05 07:32 14.81070 120.23898 1478 ft 177 kts 42°
2026-05-05 07:32 14.81970 120.24632 1297 ft 156 kts 47°
2026-05-05 07:33 14.82579 120.25467 1066 ft 139 kts 66°
2026-05-05 07:33 14.82954 120.26431 1020 ft 147 kts 70°
2026-05-05 07:33 14.83314 120.27435 918 ft 154 kts 73°
2026-05-05 07:33 14.83512 120.28512 687 ft 146 kts 85°
2026-05-05 07:34 14.83280 120.29435 351 ft 131 kts 126°
2026-05-05 07:34 14.82440 120.29904 289 ft 150 kts 162°
2026-05-05 07:34 14.81332 120.29732 305 ft 171 kts 189°
2026-05-05 07:34 14.80279 120.29112 215 ft 181 kts 232°
2026-05-05 07:35 14.79783 120.27962 38 ft 168 kts 246°
2026-05-05 07:35 14.79387 120.26993 37 ft 120 kts 248°
2026-05-05 07:35 14.79136 120.26373 39 ft 67 kts 247°
2026-05-05 07:35 14.79027 120.26104 40 ft 17 kts 247°
2026-05-05 07:36 14.78960 120.26041 39 ft 12 kts 161°
2026-05-05 07:36 14.78921 120.26113 38 ft 12 kts 109°
2026-05-05 07:36 14.78917 120.26198 36 ft 12 kts 76°
2026-05-05 07:36 14.78948 120.26279 37 ft 12 kts 66°
2026-05-05 07:37 14.79010 120.26478 37 ft 27 kts 108°
2026-05-05 07:37 14.78992 120.26599 37 ft 12 kts 68°
2026-05-05 07:37 14.79008 120.26637 37 ft 2 kts 67°
2026-05-05 07:37 14.79010 120.26642 37 ft 0 kts 67°